Location: Tofino
(49.1330°N, 125.9000°W)
Time: 03:13:57
(UTC-08:00)

ISS - Visible Passes

Search period start: 25 February 2018 00:00
Search period end: 07 March 2018 00:00
Orbit: 402 x 407 km, 51.6° (Epoch: 25 February)

Date Brightness Start Highest point End Pass type
(mag) Time Alt. Az. Time Alt. Az. Time Alt. Az.
27 Feb -0.9 05:49:25 10° S 05:51:11 14° SE 05:52:56 10° ESE visible
28 Feb -2.6 06:31:51 10° SW 06:34:57 41° SSE 06:38:04 10° ENE visible
01 Mar -1.9 05:40:08 11° SSW 05:42:47 26° SE 05:45:35 10° E visible
02 Mar -1.4 04:50:14 16° SSE 04:50:41 16° SE 04:52:50 10° E visible
02 Mar -3.6 06:23:27 10° WSW 06:26:44 74° SSE 06:30:01 10° ENE visible
03 Mar -3.1 05:32:51 24° SW 05:34:28 48° SSE 05:37:39 10° ENE visible
04 Mar -2.2 04:42:42 29° SE 04:42:42 29° SE 04:45:11 10° E visible
04 Mar -3.8 06:15:22 11° W 06:18:33 73° NNW 06:21:51 10° ENE visible
05 Mar -0.4 03:52:29 10° E 03:52:29 10° E 03:52:31 10° E visible
05 Mar -3.9 05:25:08 40° WSW 05:26:12 83° SSE 05:29:29 10° ENE visible
06 Mar -2.4 04:34:50 38° E 04:34:50 38° E 04:37:06 10° ENE visible
06 Mar -3.5 06:07:29 12° W 06:10:24 56° N 06:13:38 10° ENE visible
